(146286) = 2001 FR155 = 2005 JD32

Discovered at Haleakala on 2001-03-26 by NEAT.

Orbit

Orbit type: Main Belt

Note: WebGL enabled browser required.

epoch2023-09-13.0
epoch JD2460200.5
perihelion date2023-11-24.75107
perihelion JD2460273.25107
argument of perihelion (°)175.25593
ascending node (°)78.87536
inclination (°)3.31383
eccentricity0.1735620
perihelion distance (AU)1.9674876
Tisserand w.r.t. Jupiter3.5
ΔV w.r.t. Earth (km/sec)8.8
semimajor axis (AU)2.3806839
mean anomaly (°)340.47951
mean daily motion (°/day)0.26831890
aphelion distance (AU)2.794
period (years)3.67
P-vector [x]-0.27329823
P-vector [y]-0.88444370
P-vector [z]-0.37824253
Q-vector [x]0.96025572
Q-vector [y]-0.22766101
Q-vector [z]-0.16149120
absolute magnitude16.64
phase slope0.15
uncertainty0
referenceMPEC 2023-N34
observations used649
oppositions16
arc length (days)9146
first opposition used1998
last opposition used2023
residual rms (arc-secs)0.80
perturbers coarse indicatorM-v
perturbers precise indicator003Ek
first observation date used1998-06-22.0
last observation date used2023-07-07.0
computer nameMPCLINUX
JD of orbit computation2456612.477960
perihelion JD uncertainty (days)9.3922E-05
argument of perihelion uncertainty (°)1.1781E-04
ascending node uncertainty (°)1.1539E-04
inclination uncertainty (°)5.1826E-06
eccentricity uncertainty 4.5533E-08
perihelion distance uncertainty (AU)1.0704E-07
Minimum Orbit Intersection Distances (in AU)
for orbit epoch: 2460000.5, reference: E2023-N34
Mercury1.5018
Venus1.24132
Earth0.95245
Mars0.4435
Jupiter2.24301
Saturn6.2765
Uranus16.0061
Neptune27.1404

Observations

676 total observations over interval: 1998 06 22.37422 – 2023 07 07.289225
These data are available for download (format description).

Date (UT) J2000 RA J2000 Dec Magn Location Ref
1998 06 22.37422 21 05 48.52 -20 02 23.8 19.5 V 691 – Steward Observatory, Kitt Peak-Spacewatch MPS 134744
1998 06 22.39877 21 05 48.31 -20 02 28.7 19.4 V 691 – Steward Observatory, Kitt Peak-Spacewatch MPS 134744
1998 06 22.42328 21 05 48.07 -20 02 34.0 19.6 V 691 – Steward Observatory, Kitt Peak-Spacewatch MPS 134744
2001 03 03.30290 11 31 07.06 +09 26 30.9 18.9   704 – Lincoln Laboratory ETS, New Mexico MPS 29604
2001 03 03.31603 11 31 06.23 +09 26 35.8 18.9   704 – Lincoln Laboratory ETS, New Mexico MPS 29604
2001 03 03.32915 11 31 05.44 +09 26 42.2 18.7   704 – Lincoln Laboratory ETS, New Mexico MPS 29604
2001 03 03.34227 11 31 04.73 +09 26 45.2 18.7   704 – Lincoln Laboratory ETS, New Mexico MPS 29604
2001 03 03.35541 11 31 04.01 +09 26 52.4 18.3   704 – Lincoln Laboratory ETS, New Mexico MPS 29604
2001 03 18.27061 11 16 46.11 +11 00 06.4 19.1 R 699 – Lowell Observatory-LONEOS MPS 29604
2001 03 18.31112 11 16 43.67 +11 00 21.2   699 – Lowell Observatory-LONEOS MPS 29604
2001 03 18.35168 11 16 41.26 +11 00 34.6   699 – Lowell Observatory-LONEOS MPS 29604
2001 03 18.39237 11 16 38.87 +11 00 49.3   699 – Lowell Observatory-LONEOS MPS 29604
2001 03 26.36748 11 09 22.57 +11 39 44.7 20.4   608 – Haleakala-AMOS MPS 29604
2001 03 26.37873 11 09 21.96 +11 39 47.6 20.9   608 – Haleakala-AMOS MPS 29604
2001 03 26.38896 11 09 21.44 +11 39 50.4 20.2   608 – Haleakala-AMOS MPS 29604
2001 03 29.13626 11 07 05.14 +11 50 32.8 19.1 R 699 – Lowell Observatory-LONEOS MPS 29604
2001 03 29.16274 11 07 03.90 +11 50 37.3   699 – Lowell Observatory-LONEOS MPS 29604
2001 03 29.18928 11 07 02.54 +11 50 44.1   699 – Lowell Observatory-LONEOS MPS 29604
2001 03 29.21596 11 07 01.19 +11 50 49.3   699 – Lowell Observatory-LONEOS MPS 29604
2005 04 17.36683 15 26 33.19 -14 44 56.8 18.6 R 703 – Catalina Sky Survey MPS 133883
2005 04 17.37497 15 26 32.83 -14 44 56.5 18.3 R 703 – Catalina Sky Survey MPS 133883
2005 04 17.38311 15 26 32.59 -14 44 55.4 18.5 R 703 – Catalina Sky Survey MPS 133883
2005 04 17.39128 15 26 32.27 -14 44 55.0 18.7 R 703 – Catalina Sky Survey MPS 133883
2005 05 04.30619 15 13 44.37 -14 17 45.1 18.5   704 – Lincoln Laboratory ETS, New Mexico MPS 134089
2005 05 04.33815 15 13 42.56 -14 17 41.4 18.3   704 – Lincoln Laboratory ETS, New Mexico MPS 134089
2005 05 04.34858 15 13 41.91 -14 17 40.2 18.6   704 – Lincoln Laboratory ETS, New Mexico MPS 134089
2005 05 08.23364 15 10 04.05 -14 10 51.4 18.5 V 691 – Steward Observatory, Kitt Peak-Spacewatch MPS 134090
2005 05 08.25124 15 10 03.00 -14 10 49.7 18.5 V 691 – Steward Observatory, Kitt Peak-Spacewatch MPS 134090
2005 05 08.26224 15 10 02.35 -14 10 49.1 17.8 R 699 – Lowell Observatory-LONEOS MPS 134744
2005 05 08.26873 15 10 01.95 -14 10 48.0 18.5 V 691 – Steward Observatory, Kitt Peak-Spacewatch MPS 134090
2005 05 08.30278 15 09 59.92 -14 10 44.6   699 – Lowell Observatory-LONEOS MPS 134744
2005 05 08.32306 15 09 58.67 -14 10 43.2   699 – Lowell Observatory-LONEOS MPS 134744
2005 05 08.33866 15 09 57.71 -14 10 41.1 17.6 R G96 – Mt. Lemmon Survey MPS 134090
2005 05 08.34539 15 09 57.29 -14 10 40.4 17.7 R G96 – Mt. Lemmon Survey MPS 134090
2005 05 08.35213 15 09 56.89 -14 10 39.4 17.6 R G96 – Mt. Lemmon Survey MPS 134090
2005 05 08.35883 15 09 56.49 -14 10 38.9 17.7 R G96 – Mt. Lemmon Survey MPS 134090
2005 05 09.29813 15 09 03.03 -14 09 03.1 18.0 R 699 – Lowell Observatory-LONEOS MPS 134090
2005 05 09.31732 15 09 01.89 -14 09 01.8   699 – Lowell Observatory-LONEOS MPS 134090
2005 05 09.33652 15 09 00.71 -14 08 58.8   699 – Lowell Observatory-LONEOS MPS 134090
2005 05 09.34065 15 09 00.47 -14 08 57.2 18.2   704 – Lincoln Laboratory ETS, New Mexico MPS 134090
2005 05 09.36367 15 08 59.10 -14 08 56.1 18.1   704 – Lincoln Laboratory ETS, New Mexico MPS 134090
2005 05 09.37366 15 08 58.46 -14 08 54.9 18.2   704 – Lincoln Laboratory ETS, New Mexico MPS 134090
2005 05 11.33558 15 07 06.06 -14 05 43.1 17.6 R G96 – Mt. Lemmon Survey MPS 133883
2005 05 11.34235 15 07 05.65 -14 05 42.4 17.5 R G96 – Mt. Lemmon Survey MPS 133883
2005 05 11.34905 15 07 05.24 -14 05 41.7 17.6 R G96 – Mt. Lemmon Survey MPS 133883
2005 05 11.35578 15 07 04.83 -14 05 40.9 17.6 R G96 – Mt. Lemmon Survey MPS 133883
2005 05 12.28209 15 06 12.05 -14 04 12.7 18.3 V 691 – Steward Observatory, Kitt Peak-Spacewatch MPS 133883
2005 05 12.30305 15 06 10.72 -14 04 10.5 18.6 V 691 – Steward Observatory, Kitt Peak-Spacewatch MPS 133883
2005 05 12.32450 15 06 09.43 -14 04 08.5 18.5 V 691 – Steward Observatory, Kitt Peak-Spacewatch MPS 133883
2005 05 14.38027 15 04 11.96 -14 01 03.4 18.8   644 – Palomar Mountain/NEAT MPS 136469
2005 05 14.39169 15 04 11.28 -14 01 02.3 17.6   644 – Palomar Mountain/NEAT MPS 136469
2005 05 14.40545 15 04 10.47 -14 01 01.1 17.7   644 – Palomar Mountain/NEAT MPS 136469
2005 05 27.22710 14 53 03.79 -13 49 10.7 18.5 R 699 – Lowell Observatory-LONEOS MPS 159838
2005 05 27.25181 14 53 02.57 -13 49 10.3   699 – Lowell Observatory-LONEOS MPS 159838
2005 05 27.27915 14 53 01.33 -13 49 09.8   699 – Lowell Observatory-LONEOS MPS 159838
2005 05 27.31227 14 52 59.77 -13 49 08.3   699 – Lowell Observatory-LONEOS MPS 159838
2005 06 04.27282 14 47 51.79 -13 50 49.0 18.8 V 703 – Catalina Sky Survey MPS 135895
2005 06 04.28101 14 47 51.61 -13 50 48.5 19.0 V 703 – Catalina Sky Survey MPS 135895
2005 06 04.28911 14 47 51.32 -13 50 50.2 19.2 V 703 – Catalina Sky Survey MPS 135895
2005 06 04.29721 14 47 50.96 -13 50 49.2 18.9 V 703 – Catalina Sky Survey MPS 135895
2005 06 13.21749 14 44 25.94 -14 03 05.5 18.9 V G96 – Mt. Lemmon Survey MPS 136469
2005 06 13.22424 14 44 25.83 -14 03 06.3 19.0 V G96 – Mt. Lemmon Survey MPS 136469
2005 06 13.23098 14 44 25.72 -14 03 07.0 18.9 V G96 – Mt. Lemmon Survey MPS 136469
2005 06 13.23774 14 44 25.62 -14 03 07.6 18.9 V G96 – Mt. Lemmon Survey MPS 136469
2005 06 27.18558 14 44 37.77 -14 45 04.6 19.2   644 – Palomar Mountain/NEAT MPS 137903
2005 06 27.18704 14 44 37.80 -14 45 04.8 19.7   644 – Palomar Mountain/NEAT MPS 137903
2005 06 27.20730 14 44 38.08 -14 45 09.6 19.2   644 – Palomar Mountain/NEAT MPS 137903
2005 06 27.20851 14 44 38.08 -14 45 09.8 19.4   644 – Palomar Mountain/NEAT MPS 137903
2005 06 27.22859 14 44 38.34 -14 45 14.6 19.1   644 – Palomar Mountain/NEAT MPS 137903
2005 06 27.23002 14 44 38.36 -14 45 15.1 19.4   644 – Palomar Mountain/NEAT MPS 137904
2005 06 28.18047 14 44 54.10 -14 49 02.2 19.5 R 699 – Lowell Observatory-LONEOS MPS 136888
2005 06 28.20241 14 44 54.41 -14 49 08.4   699 – Lowell Observatory-LONEOS MPS 136888
2005 06 28.22435 14 44 54.68 -14 49 13.9   699 – Lowell Observatory-LONEOS MPS 136888
2005 06 28.24630 14 44 55.12 -14 49 18.4   699 – Lowell Observatory-LONEOS MPS 136888
2006 10 02.39745 02 38 28.75 +11 23 52.3 20.2 V G96 – Mt. Lemmon Survey MPS 182451
2006 10 02.40413 02 38 28.50 +11 23 51.2 20.2 V G96 – Mt. Lemmon Survey MPS 182451
2006 10 02.41084 02 38 28.17 +11 23 49.6 20.4 V G96 – Mt. Lemmon Survey MPS 182451
2006 10 02.41760 02 38 27.88 +11 23 48.1 20.4 V G96 – Mt. Lemmon Survey MPS 182451
2006 11 10.14326 02 02 47.93 +08 48 59.2 20.4 V 691 – Steward Observatory, Kitt Peak-Spacewatch MPS 186479
2006 11 10.15872 02 02 47.09 +08 48 56.3 20.7 V 691 – Steward Observatory, Kitt Peak-Spacewatch MPS 186479
2006 11 10.17419 02 02 46.23 +08 48 53.1 20.5 V 691 – Steward Observatory, Kitt Peak-Spacewatch MPS 186479
2006 12 26.09909 01 45 26.82 +08 32 02.9 20.8 V G96 – Mt. Lemmon Survey MPS 191821
2006 12 26.10579 01 45 26.92 +08 32 03.2 21.4 V G96 – Mt. Lemmon Survey MPS 191821
2006 12 26.11246 01 45 27.00 +08 32 05.3 20.8 V G96 – Mt. Lemmon Survey MPS 191821
2006 12 26.11914 01 45 27.07 +08 32 06.4 21.3 V G96 – Mt. Lemmon Survey MPS 191821
2007 11 11.43691 08 55 40.58 +19 19 52.6 21.2 V G96 – Mt. Lemmon Survey MPS 228082
2007 11 11.44308 08 55 40.87 +19 19 52.3 22.2 V G96 – Mt. Lemmon Survey MPS 228082
2007 11 11.44948 08 55 41.08 +19 19 51.1 21.8 V G96 – Mt. Lemmon Survey MPS 228082
2007 11 11.45568 08 55 41.34 +19 19 50.5 21.7 V G96 – Mt. Lemmon Survey MPS 228082
2007 12 14.43773 09 06 26.24 +19 29 26.4 20.8 V G96 – Mt. Lemmon Survey MPS 231251
2007 12 14.44896 09 06 26.13 +19 29 28.4 21.1 V G96 – Mt. Lemmon Survey MPS 231251
